This demonstration page uses our WeatherBlox Daily Observations layout. Learn more.

Left ArrowRight Arrow

39.95238, -75.16362

Hourly Observations for September 25, 2022

Temp ( °F °C ) Dew Point ( °F °C ) Humidity (%) Winds ( mph kmh ) Pressure ( in mb ) Visibility ( mi km ) Precip ( " mm )
12:54 am 00:54 Cloudy 64 17.8 52 11.1 65 65 SW 6 9 29.91 1013 10 16 0.00 0.00
1:54 am 01:54 Cloudy 63 17.2 52 11.1 67 67 S 8 13 29.90 1012 10 16 0.00 0.00
2:54 am 02:54 Mostly Cloudy 63 17.2 52 11.1 67 67 S 6 9 29.88 1012 10 16 0.00 0.00
3:54 am 03:54 Cloudy with Light Rain 62 16.7 54 12.2 75 75 SSW 5 7 29.87 1012 10 16 0.01 0.13
4:54 am 04:54 Cloudy 61 16.1 55 12.8 81 81 SE 5 7 29.85 1011 10 16 0.01 0.25
5:54 am 05:54 Cloudy 61 16.1 56 13.3 83 83 SE 5 7 29.83 1010 10 16 0.00 0.00
6:54 am 06:54 Mostly Cloudy 61 16.1 57 13.9 87 87 SSE 5 7 29.82 1010 10 16 0.00 0.00
7:54 am 07:54 Mostly Cloudy 61 16.1 57 13.9 87 87 SSE 7 11 29.80 1009 10 16 0.00 0.00
8:54 am 08:54 Mostly Cloudy 64 17.8 57 13.9 78 78 SSW 10 17 29.80 1009 10 16 0.00 0.00
9:54 am 09:54 Cloudy 67 19.4 57 13.9 71 71 SSW 8 13 29.78 1008 10 16 0.00 0.00
10:54 am 10:54 Cloudy 69 20.6 57 13.9 65 65 SSW 8 13 29.75 1008 10 16 0.00 0.00
11:54 am 11:54 Mostly Cloudy 69 20.6 57 13.9 65 65 SSW 9 15 29.73 1007 10 16 0.00 0.00
12:54 pm 12:54 Mostly Cloudy 71 21.7 58 14.4 63 63 SSW 10 17 29.71 1006 10 16 0.00 0.00
1:54 pm 13:54 Partly Cloudy 74 23.3 57 13.9 56 56 WSW 6 9 29.69 1006 10 16 0.00 0.00
2:54 pm 14:54 Mostly Cloudy 76 24.4 58 14.4 54 54 W 13 20 29.68 1005 10 16 0.00 0.00
3:07 pm 15:07 Windy with Storms Likely 75 23.9 60 15.6 60 60 WSW 23 37 29.71 1006 7 11 0.01 0.13
3:19 pm 15:19 Mostly Cloudy with Thunderstorms 67 19.4 59 15 76 76 NW 15 24 29.70 1006 7 11 0.08 2.03
3:25 pm 15:25 Mostly Cloudy with Light Rain 66 18.9 60 15.6 81 81 WNW 12 19 29.71 1006 7 11 0.08 2.03
3:54 pm 15:54 Mostly Cloudy with Light Rain 65 18.3 59 15 81 81 SW 8 13 29.68 1005 7 11 0.11 2.79
4:54 pm 16:54 Mostly Cloudy 67 19.4 60 15.6 79 79 SSW 12 19 29.64 1004 10 16 0.01 0.13
5:54 pm 17:54 Mostly Cloudy 68 20 61 16.1 78 78 SSW 5 7 29.64 1004 10 16 0.00 0.00
6:54 pm 18:54 Partly Cloudy 66 18.9 61 16.1 84 84 SSE 5 7 29.63 1004 10 16 0.00 0.00
7:54 pm 19:54 Mostly Cloudy 68 20 61 16.1 78 78 VRB 3 6 29.62 1003 10 16 0.00 0.00
8:54 pm 20:54 Partly Cloudy 66 18.9 60 15.6 81 81 Calm 29.62 1003 10 16 0.00 0.00
9:54 pm 21:54 Cloudy 67 19.4 61 16.1 81 81 WSW 9 15 29.63 1003 10 16 0.00 0.00
10:54 pm 22:54 Cloudy with Light Rain 67 19.4 59 15 76 76 W 10 17 29.69 1005 10 16 0.01 0.13
11:54 pm 23:54 Cloudy 65 18.3 59 15 81 81 WSW 9 15 29.68 1005 10 16 0.01 0.13

Powered by AerisWeather